EN

Hourly Weather Luka

Today, 14 May, Friday

Time Temperature Precipitation Wind Pressure Humidity
00:00 +8°C° 0 mm 2 mps 749 mmHg 96%
01:00 +7°C° 0 mm 2 mps 749 mmHg 96%
02:00 +7°C° 0 mm 2 mps 749 mmHg 97%
03:00 +7°C° 0 mm 3 mps 749 mmHg 95%
04:00 +8°C° 0 mm 3 mps 749 mmHg 94%
05:00 +8°C° 0 mm 3 mps 749 mmHg 92%
06:00 +9°C° 0 mm 3 mps 749 mmHg 91%
07:00 +8°C° 0 mm 4 mps 749 mmHg 90%
08:00 +10°C° 0 mm 4 mps 749 mmHg 89%
09:00 +12°C° 0 mm 4 mps 749 mmHg 82%
10:00 +14°C° 0 mm 5 mps 749 mmHg 75%
11:00 +15°C° 0 mm 5 mps 749 mmHg 68%
12:00 +16°C° 0 mm 5 mps 749 mmHg 65%
13:00 +16°C° 0 mm 5 mps 749 mmHg 62%
14:00 +18°C° 0 mm 4 mps 749 mmHg 60%
15:00 +18°C° 0 mm 4 mps 748 mmHg 61%
16:00 +18°C° 0 mm 4 mps 748 mmHg 61%
17:00 +18°C° 0 mm 3 mps 748 mmHg 62%
18:00 +16°C° 0 mm 3 mps 747 mmHg 70%
19:00 +15°C° 0 mm 2 mps 747 mmHg 79%
20:00 +13°C° 0 mm 2 mps 747 mmHg 87%
21:00 +13°C° 0 mm 2 mps 746 mmHg 89%
22:00 +13°C° 0 mm 2 mps 746 mmHg 91%
23:00 +12°C° 0 mm 2 mps 746 mmHg 92%

Tomorrow, 15 May, Saturday

Time Temperature Precipitation Wind Pressure Humidity
00:00 +12°C° 0.5 mm 2 mps 746 mmHg 94%
01:00 +13°C° 0.5 mm 2 mps 745 mmHg 96%
02:00 +13°C° 0.5 mm 2 mps 745 mmHg 98%
03:00 +13°C° 0.9 mm 2 mps 745 mmHg 98%
04:00 +13°C° 0.9 mm 2 mps 745 mmHg 98%
05:00 +13°C° 0.9 mm 1 mps 745 mmHg 98%
06:00 +14°C° 0.1 mm 2 mps 745 mmHg 97%
07:00 +14°C° 0.1 mm 2 mps 745 mmHg 95%
08:00 +14°C° 0.1 mm 2 mps 745 mmHg 94%
09:00 +15°C° 0.2 mm 2 mps 745 mmHg 91%
10:00 +16°C° 0.2 mm 2 mps 745 mmHg 87%
11:00 +17°C° 0.2 mm 3 mps 745 mmHg 83%
12:00 +17°C° 0.4 mm 2 mps 744 mmHg 84%
13:00 +17°C° 0.4 mm 2 mps 744 mmHg 85%
14:00 +17°C° 0.4 mm 2 mps 744 mmHg 86%
15:00 +17°C° 0.9 mm 2 mps 744 mmHg 86%
16:00 +17°C° 0.9 mm 2 mps 744 mmHg 86%
17:00 +17°C° 0.9 mm 2 mps 744 mmHg 86%
18:00 +16°C° 0.4 mm 2 mps 744 mmHg 89%
19:00 +15°C° 0.4 mm 2 mps 744 mmHg 92%
20:00 +13°C° 0.4 mm 2 mps 744 mmHg 95%
21:00 +13°C° 0 mm 2 mps 744 mmHg 95%
22:00 +13°C° 0 mm 2 mps 744 mmHg 96%
23:00 +13°C° 0 mm 2 mps 744 mmHg 96%

Day after tomorrow, 16 May, Sunday

Time Temperature Precipitation Wind Pressure Humidity
00:00 +13°C° 0.1 mm 2 mps 745 mmHg 97%
01:00 +12°C° 0.1 mm 2 mps 745 mmHg 97%
02:00 +12°C° 0.1 mm 2 mps 745 mmHg 98%
03:00 +12°C° 0 mm 2 mps 745 mmHg 98%
04:00 +12°C° 0 mm 2 mps 746 mmHg 98%
05:00 +12°C° 0 mm 2 mps 746 mmHg 98%
06:00 +13°C° 0 mm 2 mps 746 mmHg 93%
07:00 +14°C° 0 mm 2 mps 747 mmHg 87%
08:00 +15°C° 0 mm 2 mps 747 mmHg 81%
09:00 +17°C° 0 mm 3 mps 747 mmHg 70%
10:00 +18°C° 0 mm 3 mps 748 mmHg 60%
11:00 +20°C° 0 mm 3 mps 748 mmHg 49%
12:00 +20°C° 0 mm 3 mps 748 mmHg 48%
13:00 +21°C° 0 mm 2 mps 748 mmHg 47%
14:00 +23°C° 0 mm 2 mps 748 mmHg 46%
15:00 +21°C° 0 mm 2 mps 748 mmHg 51%
16:00 +20°C° 0 mm 2 mps 748 mmHg 56%
17:00 +21°C° 0 mm 1 mps 748 mmHg 62%
18:00 +20°C° 0 mm 1 mps 748 mmHg 68%
19:00 +18°C° 0 mm 1 mps 748 mmHg 74%
20:00 +16°C° 0 mm 1 mps 749 mmHg 80%
21:00 +15°C° 0 mm 1 mps 749 mmHg 84%
22:00 +14°C° 0 mm 1 mps 749 mmHg 89%
23:00 +13°C° 0 mm 2 mps 749 mmHg 93%

17 May, Monday

Time Temperature Precipitation Wind Pressure Humidity
00:00 +13°C° 0 mm 2 mps 749 mmHg 94%
01:00 +12°C° 0 mm 2 mps 749 mmHg 95%
02:00 +12°C° 0 mm 2 mps 749 mmHg 96%
03:00 +12°C° 0 mm 2 mps 749 mmHg 96%
04:00 +12°C° 0 mm 2 mps 749 mmHg 95%
05:00 +13°C° 0 mm 2 mps 749 mmHg 94%
06:00 +15°C° 0 mm 2 mps 749 mmHg 87%
07:00 +16°C° 0 mm 3 mps 749 mmHg 79%
08:00 +18°C° 0 mm 3 mps 749 mmHg 72%
09:00 +20°C° 0 mm 3 mps 749 mmHg 66%
10:00 +21°C° 0 mm 4 mps 748 mmHg 60%
11:00 +22°C° 0 mm 4 mps 748 mmHg 53%
12:00 +23°C° 0 mm 4 mps 748 mmHg 52%
13:00 +23°C° 0 mm 4 mps 747 mmHg 51%
14:00 +25°C° 0 mm 3 mps 747 mmHg 50%
15:00 +22°C° 1 mm 3 mps 746 mmHg 62%
16:00 +20°C° 1 mm 3 mps 745 mmHg 75%
17:00 +18°C° 1 mm 2 mps 745 mmHg 87%
18:00 +18°C° 1.7 mm 2 mps 744 mmHg 90%
19:00 +18°C° 1.7 mm 3 mps 743 mmHg 92%
20:00 +17°C° 1.7 mm 3 mps 743 mmHg 95%
21:00 +17°C° 1.3 mm 3 mps 742 mmHg 95%
22:00 +17°C° 1.3 mm 3 mps 742 mmHg 96%
23:00 +17°C° 1.3 mm 3 mps 742 mmHg 96%

18 May, Tuesday

Time Temperature Precipitation Wind Pressure Humidity
00:00 +16°C° 0.2 mm 3 mps 742 mmHg 97%
01:00 +15°C° 0.2 mm 2 mps 743 mmHg 97%
02:00 +14°C° 0.2 mm 2 mps 743 mmHg 97%
03:00 +13°C° 0 mm 2 mps 743 mmHg 98%
04:00 +13°C° 0 mm 1 mps 744 mmHg 98%
05:00 +13°C° 0 mm 1 mps 744 mmHg 98%
06:00 +13°C° 0 mm 1 mps 744 mmHg 95%
07:00 +14°C° 0 mm 1 mps 744 mmHg 93%
08:00 +15°C° 0 mm 1 mps 744 mmHg 91%
09:00 +16°C° 0.1 mm 1 mps 745 mmHg 86%
10:00 +18°C° 0.1 mm 1 mps 745 mmHg 81%
11:00 +18°C° 0.1 mm 1 mps 745 mmHg 77%
12:00 +19°C° 0.1 mm 1 mps 745 mmHg 73%
13:00 +20°C° 0.1 mm 1 mps 745 mmHg 70%
14:00 +20°C° 0.1 mm 1 mps 745 mmHg 67%
15:00 +20°C° 0.1 mm 1 mps 745 mmHg 68%
16:00 +20°C° 0.1 mm 1 mps 744 mmHg 69%
17:00 +20°C° 0.1 mm 1 mps 744 mmHg 70%
18:00 +19°C° 0.1 mm 1 mps 744 mmHg 75%
19:00 +16°C° 0.1 mm 1 mps 744 mmHg 81%
20:00 +14°C° 0.1 mm 0 mps 744 mmHg 86%
21:00 +14°C° 0 mm 0 mps 744 mmHg 88%
22:00 +13°C° 0 mm 0 mps 744 mmHg 89%
23:00 +13°C° 0 mm 0 mps 744 mmHg 91%

19 May, Wednesday

Time Temperature Precipitation Wind Pressure Humidity
00:00 +12°C° 0 mm 0 mps 744 mmHg 91%
01:00 +11°C° 0 mm 0 mps 744 mmHg 92%
02:00 +11°C° 0 mm 0 mps 744 mmHg 93%
03:00 +11°C° 0 mm 0 mps 744 mmHg 92%
04:00 +11°C° 0 mm 0 mps 744 mmHg 92%
05:00 +11°C° 0 mm 0 mps 744 mmHg 91%
06:00 +14°C° 0 mm 1 mps 744 mmHg 85%
07:00 +15°C° 0 mm 1 mps 744 mmHg 79%
08:00 +18°C° 0 mm 1 mps 744 mmHg 73%
09:00 +19°C° 0.1 mm 1 mps 744 mmHg 70%
10:00 +18°C° 0.1 mm 2 mps 743 mmHg 67%
11:00 +19°C° 0.1 mm 2 mps 743 mmHg 64%
12:00 +18°C° 2.5 mm 2 mps 743 mmHg 73%
13:00 +16°C° 2.5 mm 2 mps 743 mmHg 82%
14:00 +15°C° 2.5 mm 2 mps 742 mmHg 91%
15:00 +14°C° 2.7 mm 2 mps 742 mmHg 93%
16:00 +13°C° 2.7 mm 3 mps 742 mmHg 95%
17:00 +12°C° 2.7 mm 4 mps 742 mmHg 96%
18:00 +12°C° 1.8 mm 4 mps 743 mmHg 96%
19:00 +12°C° 1.8 mm 4 mps 743 mmHg 96%
20:00 +12°C° 1.8 mm 3 mps 744 mmHg 95%
21:00 +11°C° 0.2 mm 3 mps 745 mmHg 95%
22:00 +11°C° 0.2 mm 3 mps 745 mmHg 95%
23:00 +10°C° 0.2 mm 3 mps 746 mmHg 95%
Show more